Hourly Data Report for October 14, 2014

All times are specified in Local Standard Time (LST). Add 1 hour to adjust for Daylight Saving Time where and when it is observed.

QIKIQTARJUAQ A
NUNAVUT

67°32'48.000" N
64°01'54.000" W
5.50 m
2400577
YVM

Related Data

No related data is available for this station

Download Data

Hourly Data (October 2014)
Hourly Data Report for October 14, 2014
Temp Definition
°C
Dew Point Temp Definition
°C
Rel Hum Definition
%
Wind Dir Definition
10's deg

Wind Spd Definition
km/h
Visibility Definition
km
Stn Press Definition
kPa
Hmdx Definition


Wind Chill Definition


Weather Definition


TIME
00:00 Legend Double Dagger -4.8 -7.5 81 12 9 16.1 100.93   -9 LegendNANA
01:00 Legend Double Dagger -5.1 -7.7 82 15 9 16.1 100.96   -9 LegendNANA
02:00 Legend Double Dagger -5.6 -7.4 87 12 5 16.1 100.97   -8 LegendNANA
03:00 Legend Double Dagger -3.1 -5.2 85 LegendMM 4 16.1 100.98   -5 LegendNANA
04:00 Legend Double Dagger -2.7 -5.4 82   0 16.1 101.00     LegendNANA
05:00 Legend Double Dagger -2.4 -4.5 86   0 16.1 100.99     LegendNANA
06:00 Legend Double Dagger -1.9 -3.9 86 22 4 16.1 100.98   -3 LegendNANA
07:00 Legend Double Dagger -2.8 -4.4 89   0 16.1 100.99     LegendNANA
08:00 Legend Double Dagger -1.9 -4.2 85   0 16.1 100.99     LegendNANA
09:00 Legend Double Dagger -1.4 -4.4 80 LegendMM 4 16.1 100.98   -3 LegendNANA
10:00 Legend Double Dagger -1.9 -4.6 82   0 16.1 100.95     LegendNANA
11:00 Legend Double Dagger -2.2 -4.7 83 10 4 16.1 100.94   -4 LegendNANA
12:00 Legend Double Dagger -2.6 -4.5 87 6 5 16.1 100.92   -5 LegendNANA
13:00 Legend Double Dagger -1.8 -3.4 89 6 8 16.1 100.93   -5 LegendNANA
14:00 Legend Double Dagger -0.8 -1.9 92 1 13 4.8 100.91   -5 Snow
15:00 Legend Double Dagger -0.8 -1.7 94 1 13 2.4 100.88   -5 Snow
16:00 Legend Double Dagger -1.3 -2.0 95 2 5 2.4 100.83   -3 Snow
17:00 Legend Double Dagger -1.0 -1.6 96 8 8 2.0 100.75   -4 Snow
18:00 Legend Double Dagger 0.5 -0.8 91 36 13 4.8 100.68     Snow
19:00 Legend Double Dagger 0.4 -0.8 91 34 18 2.8 100.61     Snow
20:00 Legend Double Dagger 0.0 -0.9 94 1 9 3.2 100.54   -3 Snow
21:00 Legend Double Dagger 0.1 -0.9 93 11 9 4.0 100.46     Snow
22:00 Legend Double Dagger 0.2 -0.8 93 10 13 4.8 100.40     Snow
23:00 Legend Double Dagger 0.2 -0.8 93 10 11 16.1 100.34     Snow

Notes on Data Quality.

Legend

  • E = Estimated
  • M = Missing
  • NA = Not Available
  • ‡ = Partner data that is not subject to review by the National Climate Archives
Date modified: